Погода в Любынях

Россия / Новгородская область     58°05′51″N   30°37′08″E
темп.,
°C
ветер,
м/с
пор.,
м/с
влажн.,
%
обл.,
%
осадки,
мм/ч
давл.,
гПа
погр.,
м
7 мая, пт
пт700:00+5юз61290100 0.1 1000981
03:00+4юз6128799 0.1 1001934
06:00+4юз6118494 0.0 1002928
09:00+6юз5117699 0.0 10031257
12:00+8юз5107490 0.3 10041346
15:00+11зюз6115373 0.8 10052103
18:00+11зюз3756100 0.1 10051554
21:00+6юв1172100 0.1 100510
8 мая, сб
сб800:00+6ю2586100 0.2 1005123
03:00+5с1296100 4.1 1003102
06:00+4сз3397100 3.3 1002722
09:00+5зсз3694100 3.9 1003657
12:00+5зсз5794100 0.4 1004758
15:00+5зсз5785100 0.5 10061026
18:00+6зсз477971 0.1 1007926
21:00+3зсз269148 0.3 1009208
9 мая, вс
вс900:00+1зсз39955 0.0 1011243
03:00+1з4139269 0.0 1012473
06:000зюз39933 0.0 1016263
09:00+6з48651 0.0 1017667
12:00+11зюз584349 0.0 10191718
15:00+12зюз584150 0.0 10191986
18:00+11юз485286 0.0 10201601
21:00+7ююз397372 0.0 1021204
10 мая, пн
пн1000:00+6ююз4137092 0.0 1021333
03:00+6ю41388100 0.6 1021424
06:00+7ююз5148490 0.1 1022546
09:00+11юз51371100 0.1 1023556
12:00+16юз6105613 0.0 1024911
15:00+19ююз695217 0.0 10241373
18:00+18ююз5960100 0.0 10241130
21:00+14ю51375100 0.0 1023432
11 мая, вт
вт1100:00+11ю51480100 0.0 1026410
03:00+10ю4138488 0.0 1026353
06:00+9ю5148535 0.0 1026382
09:00+14ююз5126490 0.0 1026622
12:00+18ююз695096 0.0 10261089
15:00+20ююз68435 0.0 10251266
18:00+19ю48525 0.0 1025946
21:00+13ююв38771 0.0 1025152